Date String (YYYY-MM-DD hh:mm:ss) UTC,Instrument flags,absolute air pressure of the measurement (hPa),sample flow rate (lpm),inlet stack bypass flow (lpm),air temperature of the measurement (°C),ambient temperature measured by the external sensor (°C),aerosol sample conditioner tube jacket temperature (°C),OPC LED temperature (°C),internal box temperature (°C),relative humidity of the measurement (%),span deviation,mass concentration of particles derived from Lorenz-Mie calculation of OPC scattering (μg/m³),mass concentration of particles derived from Lorenz-Mie calculation of OPC scattering (μg/m³),mass concentration of particles derived from Lorenz-Mie calculation of OPC scattering (μg/m³)
DateTimeUTC,F1_M11,P_M11,Q1_M11,Q2_M11,T1_M11,T2_M11,T3_M11,T4_M11,T5_M11,U1_M11,ZSPAN_M11,X2_M11,X0_M11,X1_M11
2023-07-18 17:00:00,SystemResetWarning,0832.7,4.97,000.00,028.8,026.9,000.0,036.9,030.4,20.5,0000.0,0005.08,0013.34,0004.45
2023-07-18 17:01:00,SystemResetWarning,0832.7,5.00,000.00,028.7,025.5,000.0,036.9,030.2,20.8,0000.0,0005.10,0013.35,0004.45
2023-07-18 17:02:00,SystemResetWarning,0832.6,5.01,000.00,028.7,025.3,000.0,036.8,030.2,20.9,0000.0,0005.08,0013.22,0004.45
2023-07-18 17:03:00,SystemResetWarning,0832.7,5.01,000.00,028.6,025.6,000.0,036.8,030.1,20.1,0000.0,0005.08,0012.37,0004.46
2023-07-18 17:04:00,SystemResetWarning,0832.7,4.99,000.00,028.6,026.0,000.0,036.9,030.1,19.7,0000.0,0005.05,0011.49,0004.46
2023-07-18 17:05:00,SystemResetWarning,0832.7,4.99,000.00,028.6,026.4,000.0,036.9,030.2,19.9,0000.0,0005.08,0011.49,0004.48
2023-07-18 17:06:00,SystemResetWarning,0832.7,5.00,000.00,028.7,026.8,000.0,037.0,030.3,19.6,0000.0,0005.15,0012.29,0004.49
2023-07-18 17:07:00,SystemResetWarning,0832.7,5.00,000.00,028.7,027.2,000.0,037.0,030.4,19.6,0000.0,0005.18,0012.74,0004.50
2023-07-18 17:08:00,SystemResetWarning,0832.7,4.99,000.00,028.8,026.9,000.0,036.9,030.4,19.6,0000.0,0005.16,0013.78,0004.50
2023-07-18 17:09:00,SystemResetWarning,0832.6,4.99,000.00,028.7,025.6,000.0,036.9,030.2,20.4,0000.0,0005.17,0013.83,0004.51
2023-07-18 17:10:00,SystemResetWarning,0832.7,5.01,000.00,028.7,025.4,000.0,036.8,030.2,20.8,0000.0,0005.22,0014.85,0004.52
2023-07-18 17:11:00,SystemResetWarning,0832.6,5.01,000.00,028.7,025.8,000.0,036.8,030.2,21.1,0000.0,0005.23,0014.84,0004.52
2023-07-18 17:12:00,SystemResetWarning,0832.7,5.00,000.00,028.6,026.2,000.0,036.9,030.2,21.0,0000.0,0005.24,0014.65,0004.51
2023-07-18 17:13:00,SystemResetWarning,0832.6,5.00,000.00,028.7,026.6,000.0,036.9,030.3,20.7,0000.0,0005.27,0015.40,0004.52
2023-07-18 17:14:00,SystemResetWarning,0832.6,5.00,000.00,028.7,027.0,000.0,037.0,030.4,20.0,0000.0,0005.27,0015.59,0004.53
2023-07-18 17:15:00,SystemResetWarning,0832.7,5.00,000.00,028.8,027.2,000.0,037.0,030.4,20.4,0000.0,0005.28,0015.18,0004.55
2023-07-18 17:16:00,SystemResetWarning,0832.6,4.98,000.00,028.8,026.1,000.0,036.9,030.3,20.1,0000.0,0005.25,0015.99,0004.54
2023-07-18 17:17:00,SystemResetWarning,0832.6,5.02,000.00,028.7,025.2,000.0,036.8,030.1,19.5,0000.0,0005.23,0015.91,0004.56
2023-07-18 17:18:00,SystemResetWarning,0832.6,5.00,000.00,028.7,025.6,000.0,036.8,030.1,20.6,0000.0,0005.22,0015.51,0004.57
2023-07-18 17:19:00,SystemResetWarning,0832.6,5.01,000.00,028.6,026.0,000.0,036.9,030.1,21.0,0000.0,0005.24,0014.33,0004.59
2023-07-18 17:20:00,SystemResetWarning,0832.6,5.00,000.00,028.6,026.4,000.0,036.9,030.2,20.1,0000.0,0005.28,0014.20,0004.60
2023-07-18 17:21:00,SystemResetWarning,0832.6,5.00,000.00,028.7,026.8,000.0,036.9,030.3,20.2,0000.0,0005.28,0013.23,0004.60
2023-07-18 17:22:00,SystemResetWarning,0832.7,5.00,000.00,028.7,027.1,000.0,037.0,030.4,20.6,0000.0,0005.28,0013.31,0004.61
2023-07-18 17:23:00,SystemResetWarning,0832.6,5.00,000.00,028.8,026.8,000.0,036.9,030.4,20.9,0000.0,0005.24,0013.55,0004.62
2023-07-18 17:24:00,SystemResetWarning,0832.7,4.99,000.00,028.7,025.4,000.0,036.8,030.2,21.3,0000.0,0005.22,0012.74,0004.62
2023-07-18 17:25:00,SystemResetWarning,0832.7,5.01,000.00,028.7,025.3,000.0,036.8,030.1,20.7,0000.0,0005.22,0012.63,0004.63
2023-07-18 17:26:00,SystemResetWarning,0832.7,5.01,000.00,028.6,025.7,000.0,036.8,030.1,20.9,0000.0,0005.20,0012.60,0004.62
2023-07-18 17:27:00,SystemResetWarning,0832.7,5.00,000.00,028.6,026.1,000.0,036.9,030.1,20.7,0000.0,0005.25,0012.07,0004.62
2023-07-18 17:28:00,SystemResetWarning,0832.7,5.00,000.00,028.6,026.5,000.0,036.9,030.2,21.2,0000.0,0005.26,0011.52,0004.61
2023-07-18 17:29:00,SystemResetWarning,0832.7,5.00,000.00,028.7,026.9,000.0,036.9,030.3,20.5,0000.0,0005.26,0011.50,0004.62
2023-07-18 17:30:00,SystemResetWarning,0832.7,4.99,000.00,028.7,027.1,000.0,036.9,030.4,20.7,0000.0,0005.26,0011.52,0004.61
2023-07-18 17:31:00,SystemResetWarning,0832.7,4.99,000.00,028.7,025.9,000.0,036.9,030.2,19.7,0000.0,0005.25,0011.84,0004.61
2023-07-18 17:32:00,SystemResetWarning,0832.7,5.00,000.00,028.6,025.2,000.0,036.8,030.1,19.6,0000.0,0005.24,0011.86,0004.60
2023-07-18 17:33:00,SystemResetWarning,0832.7,5.01,000.00,028.6,025.6,000.0,036.8,030.1,19.6,0000.0,0005.23,0011.40,0004.60
2023-07-18 17:34:00,SystemResetWarning,0832.7,5.01,000.00,028.6,026.0,000.0,036.8,030.1,19.7,0000.0,0005.28,0011.73,0004.61
2023-07-18 17:35:00,SystemResetWarning,0832.7,4.99,000.00,028.6,026.4,000.0,036.9,030.2,19.5,0000.0,0005.30,0012.37,0004.62
2023-07-18 17:36:00,SystemResetWarning,0832.6,5.00,000.00,028.6,026.8,000.0,036.9,030.3,20.4,0000.0,0005.27,0012.20,0004.62
2023-07-18 17:37:00,SystemResetWarning,0832.6,5.00,000.00,028.7,026.9,000.0,036.9,030.3,20.4,0000.0,0005.31,0012.32,0004.63
2023-07-18 17:38:00,SystemResetWarning,0832.6,4.98,000.00,028.7,025.7,000.0,036.8,030.2,20.1,0000.0,0005.34,0012.04,0004.63
2023-07-18 17:39:00,SystemResetWarning,0832.6,5.01,000.00,028.6,025.1,000.0,036.8,030.0,19.6,0000.0,0005.32,0012.12,0004.64
2023-07-18 17:40:00,SystemResetWarning,0832.6,5.01,000.00,028.6,025.6,000.0,036.8,030.0,20.4,0000.0,0005.31,0012.54,0004.63
2023-07-18 17:41:00,SystemResetWarning,0832.6,4.99,000.00,028.5,025.9,000.0,036.8,030.0,19.4,0000.0,0005.29,0012.79,0004.63
2023-07-18 17:42:00,SystemResetWarning,0832.6,5.00,000.00,028.6,026.4,000.0,036.8,030.1,19.5,0000.0,0005.26,0012.33,0004.62
2023-07-18 17:43:00,SystemResetWarning,0832.7,5.01,000.00,028.6,026.8,000.0,036.9,030.2,19.8,0000.0,0005.26,0012.10,0004.62
2023-07-18 17:44:00,SystemResetWarning,0832.7,5.00,000.00,028.6,027.1,000.0,036.9,030.3,19.4,0000.0,0005.26,0011.94,0004.63
2023-07-18 17:45:00,SystemResetWarning,0832.6,5.00,000.00,028.7,026.5,000.0,036.9,030.3,19.6,0000.0,0005.22,0011.35,0004.62
2023-07-18 17:46:00,SystemResetWarning,0832.6,4.99,000.00,028.6,025.3,000.0,036.8,030.1,19.6,0000.0,0005.18,0010.65,0004.60
2023-07-18 17:47:00,SystemResetWarning,0832.6,5.02,000.00,028.6,025.5,000.0,036.7,030.1,19.0,0000.0,0005.17,0010.64,0004.59
2023-07-18 17:48:00,SystemResetWarning,0832.6,5.00,000.00,028.6,025.9,000.0,036.8,030.1,19.8,0000.0,0005.15,0010.36,0004.58
2023-07-18 17:49:00,SystemResetWarning,0832.6,5.00,000.00,028.6,026.3,000.0,036.8,030.1,20.5,0000.0,0005.11,0010.17,0004.59
2023-07-18 17:50:00,SystemResetWarning,0832.6,5.01,000.00,028.6,026.7,000.0,036.9,030.2,20.5,0000.0,0005.10,0009.96,0004.57
2023-07-18 17:51:00,SystemResetWarning,0832.6,5.00,000.00,028.7,027.0,000.0,036.9,030.3,19.5,0000.0,0005.10,0009.53,0004.57
2023-07-18 17:52:00,SystemResetWarning,0832.6,4.98,000.00,028.7,026.4,000.0,036.8,030.3,19.8,0000.0,0005.15,0009.72,0004.59
2023-07-18 17:53:00,SystemResetWarning,0832.5,5.01,000.00,028.6,025.2,000.0,036.8,030.1,19.2,0000.0,0005.19,0009.88,0004.60
2023-07-18 17:54:00,SystemResetWarning,0832.6,5.01,000.00,028.6,025.4,000.0,036.7,030.1,19.7,0000.0,0005.21,0010.35,0004.60
2023-07-18 17:55:00,SystemResetWarning,0832.5,4.99,000.00,028.6,025.8,000.0,036.8,030.0,20.0,0000.0,0005.20,0010.54,0004.60
2023-07-18 17:56:00,SystemResetWarning,0832.5,5.00,000.00,028.6,026.2,000.0,036.8,030.1,20.7,0000.0,0005.18,0010.24,0004.60
2023-07-18 17:57:00,SystemResetWarning,0832.5,5.00,000.00,028.6,026.6,000.0,036.8,030.2,19.2,0000.0,0005.17,0009.97,0004.61
2023-07-18 17:58:00,SystemResetWarning,0832.5,5.00,000.00,028.6,027.0,000.0,036.9,030.3,19.9,0000.0,0005.22,0010.09,0004.62
2023-07-18 17:59:00,SystemResetWarning,0832.5,4.99,000.00,028.7,027.0,000.0,036.9,030.4,19.6,0000.0,0005.25,0010.43,0004.64
